Weather History for Asheville, NC

Change the Weather History Date:

Thursday, February 11, 2010

  Actual Average Record
Temperature  
Mean Temperature 28 °F 40 °F  
Max Temperature 35 °F 50 °F 74 °F (1932)
Min Temperature 21 °F 29 °F 7 °F (1955)
Degree Days  
Heating Degree Days 37 25  
Month to date heating degree days 354 289  
Since 1 July heating degree days 3036 2816  
Cooling Degree Days 0 0  
Month to date cooling degree days 0 0  
Year to date cooling degree days 0 0  
Moisture  
Dew Point 17 °F    
Average Humidity 68    
Maximum Humidity 84    
Minimum Humidity 51    
Precipitation  
Precipitation T in 0.13 in 1.69 in (1985)
Month to date precipitation 2.69 1.45  
Year to date precipitation 9.69 5.12  
Snow  
Snow T in 0.10 in 4.20 in (1910)
Month to date snowfall 3.0 1.0  
Since 1 July snowfall 26.6 6.1  
Snow Depth T in    
Sea Level Pressure  
Sea Level Pressure 29.97 in    
Wind  
Wind Speed 17 mph (NNW)    
Max Wind Speed 32 mph    
Max Gust Speed 45 mph    
Visibility 8 miles    
Events Snow    
T = Trace of Precipitation, MM = Missing Value Source: NWS Daily Summary

Daily Weather History Graph

Daily Weather History Graph

Search for Another Location

Airport:

Trip Planner

Search our weather history database for the weather conditions in past years. The results will help you decide how hot, cold, wet, or windy it might be!

Date:

Astronomy

Feb. 11, 2010 Rise Set
Actual Time 7:20 AM EST 6:08 PM EST
Civil Twilight 6:54 AM EST 6:34 PM EST
Nautical Twilight 6:24 AM EST 7:04 PM EST
Astronomical Twilight 5:55 AM EST 7:34 PM EST
Moon 5:51 AM EST (2/11) 4:06 PM EST (2/11)
Length of Visible Light 11h 39m
Length of Day
10h 47m
Waning Crescent, 5% of the Moon is Illuminated
Feb 11
Waning Crescent
Feb 13
New
Feb 21
First Quarter
Feb 28
Full
Mar 7
Last Quarter

Hourly Weather History & Observations

Time (EST) Temp. Windchill Dew Point Humidity Pressure Visibility Wind Dir Wind Speed Gust Speed Precip Events Conditions
12:13 AM 23.0 °F 7.2 °F 17.6 °F 80% 29.89 in 1.8 mi NNW 23.0 mph 34.5 mph 0.00 in Snow Light Snow
12:40 AM 21.2 °F 4.9 °F 17.6 °F 86% 29.90 in 2.0 mi North 23.0 mph 38.0 mph 0.00 in Snow Light Snow
12:54 AM 21.9 °F 5.1 °F 18.0 °F 85% 29.95 in 2.5 mi North 25.3 mph 35.7 mph 0.00 in Snow Light Snow
1:54 AM 21.9 °F 6.2 °F 18.0 °F 85% 29.95 in 3.0 mi NNW 21.9 mph 31.1 mph 0.00 in Snow Light Snow
2:54 AM 21.9 °F 5.8 °F 18.0 °F 85% 29.97 in 4.0 mi North 23.0 mph 32.2 mph 0.00 in Snow Light Snow
3:54 AM 21.9 °F 5.1 °F 17.1 °F 82% 29.94 in 4.0 mi North 25.3 mph 40.3 mph 0.00 in Snow Light Snow
4:47 AM 21.2 °F 4.2 °F 15.8 °F 80% 29.89 in 9.0 mi North 25.3 mph 39.1 mph 0.00 in   Scattered Clouds
4:54 AM 21.9 °F 4.8 °F 16.0 °F 78% 29.94 in 10.0 mi North 26.5 mph 39.1 mph 0.00 in   Scattered Clouds
5:34 AM 21.2 °F 3.9 °F 15.8 °F 80% 29.90 in 10.0 mi NNW 26.5 mph 44.9 mph 0.00 in   Mostly Cloudy
5:54 AM 21.9 °F 6.5 °F 16.0 °F 78% 29.96 in 10.0 mi NNW 20.7 mph 39.1 mph 0.00 in   Overcast
6:54 AM 21.9 °F 6.9 °F 16.0 °F 78% 29.99 in 10.0 mi North 19.6 mph 32.2 mph 0.00 in   Overcast
7:54 AM 21.9 °F 6.9 °F 15.1 °F 75% 30.00 in 10.0 mi North 19.6 mph 34.5 mph N/A   Mostly Cloudy
8:54 AM 21.9 °F 7.3 °F 16.0 °F 78% 30.01 in 10.0 mi North 18.4 mph 35.7 mph N/A   Mostly Cloudy
9:54 AM 24.1 °F 10.6 °F 16.0 °F 71% 30.03 in 10.0 mi North 17.3 mph 31.1 mph N/A   Scattered Clouds
10:54 AM 26.1 °F 12.3 °F 17.1 °F 69% 30.04 in 10.0 mi NNW 19.6 mph 27.6 mph N/A   Scattered Clouds
11:54 AM 28.0 °F 14.6 °F 17.1 °F 63% 30.03 in 10.0 mi North 20.7 mph 25.3 mph N/A   Clear
12:54 PM 30.9 °F 22.2 °F 18.0 °F 59% 30.01 in 10.0 mi North 10.4 mph - N/A   Clear
1:54 PM 32.0 °F 20.8 °F 18.0 °F 56% 29.99 in 10.0 mi North 17.3 mph 24.2 mph N/A   Clear
2:54 PM 34.0 °F 24.6 °F 18.0 °F 52% 29.96 in 10.0 mi North 13.8 mph 21.9 mph N/A   Clear
3:54 PM 34.0 °F 22.4 °F 17.1 °F 50% 29.96 in 10.0 mi NNW 20.7 mph 25.3 mph N/A   Clear
4:54 PM 34.0 °F 25.0 °F 17.1 °F 50% 29.96 in 10.0 mi NNW 12.7 mph - N/A   Clear
5:54 PM 32.0 °F 24.2 °F 17.1 °F 54% 29.98 in 10.0 mi North 9.2 mph - N/A   Clear
6:54 PM 30.0 °F 21.1 °F 18.0 °F 61% 29.99 in 10.0 mi North 10.4 mph - N/A   Clear
7:54 PM 28.0 °F 17.5 °F 19.0 °F 69% 30.00 in 10.0 mi NNW 12.7 mph - N/A   Clear
8:54 PM 27.0 °F 16.7 °F 19.0 °F 72% 30.00 in 10.0 mi North 11.5 mph 17.3 mph N/A   Clear
9:54 PM 27.0 °F 16.7 °F 19.0 °F 72% 30.00 in 10.0 mi North 11.5 mph - N/A   Clear
10:54 PM 26.1 °F 15.0 °F 19.0 °F 75% 29.99 in 10.0 mi NNW 12.7 mph - N/A   Clear
11:54 PM 26.1 °F 13.6 °F 19.0 °F 75% 29.99 in 10.0 mi NNW 16.1 mph - N/A   Clear